Regional Weather Roundup
Issued by NWS

Home | Current Version | Previous Version | Graphics & Text | Print | Product List | Glossary On
Versions: 1 2 3 4 5 6 7 8 9 10 11 12 13 14 15 16 17 18 19 20 21 22 23 24 25 26 27 28 29 30 31 32 33 34 35 36 37 38 39 40 41 42 43 44 45 46 47 48 49 50
000
ASUS45 KTFX 222004
RWRMT
MONTANA HOURLY WEATHER ROUNDUP
NATIONAL WEATHER SERVICE GREAT FALLS MT
104 PM MST MON DEC 22 2014

NOTE: "FAIR" INDICATES FEW OR NO CLOUDS BELOW 12000 FEET WITH NO
SIGNIFICANT WEATHER AND/OR OBSTRUCTIONS TO VISIBILITY.

* THESE STATIONS ARE NOT UNDER NWS QUALITY CONTROL. THEY DO NOT
   REPORT WEATHER SUCH AS PRECIPITATION OR FOG.

MTZ001>007-043-222100-
WEST OF THE DIVIDE
CITY           SKY/WX    TMP DP  RH WIND       PRES   REMARKS
KALISPELL      CLOUDY    37  32  82 S5        30.02R WCI  33
MISSOULA       CLOUDY    39  27  62 NW12      30.06R WCI  32
BUTTE          PTSUNNY   30  19  64 NW10      29.95R WCI  21
MULLAN PASS    CLOUDY    25  21  85 NW8G20    30.03R WCI  16
* ESSEX        N/A       36  23  59 NW6G13     N/A   WCI  31
* LINCOLN      N/A       36  26  67 SW7G17     N/A   WCI  30
* LOOKOUT PASS N/A       31  25  78 NE6        N/A   WCI  25
* POLSON       N/A       38  24  57 SW3        N/A
* RONAN APT    PTSUNNY   39  28  65 N/A        N/A
* SEELEY LAKE  N/A       36  28  73 SW4G10     N/A
* THOMP F APT  PTCLDY    31  19  61 NW6G15     N/A   WCI  25
* YAAK HILL    N/A       42  29  60 W1         N/A
$$

MTZ008-052>055-222100-
SOUTHWEST MONTANA
CITY           SKY/WX    TMP DP  RH WIND       PRES   REMARKS
BOZEMAN        CLOUDY    34  25  70 E6        29.93R WCI  29
DILLON         CLOUDY    34  25  70 CALM      29.95S
* W YELLOWSTON PTSUNNY   31  22  69 N2G7       N/A
* THREE FORKS  PTSUNNY   41  27  58 W9         N/A
* BOULDER HILL N/A       31  12  45 N13G22     N/A   WCI  21
* MONIDA PASS  N/A       26  17  69 NW23       N/A   WCI  11
* RAYNOLDS PAS N/A       25  24  96 N9         N/A   WCI  16
* WHITEHALL    N/A       42  26  53 SW6G20     N/A
* WISE RIVER   N/A       30  22  72 W7         N/A   WCI  23
$$

MTZ009>010-012-014-046-048-049-054-222100-
EAST SLOPES AND CENTRAL MONTANA
CITY           SKY/WX    TMP DP  RH WIND       PRES   REMARKS
CUT BANK       CLOUDY    36  27  70 NW26G32   29.92R WCI  24
GREAT FALLS    CLOUDY    41  19  41 NW14      29.89R
HELENA         CLOUDY    39  21  48 W10       29.93R WCI  32
MALMSTROM AFB  CLOUDY    39  25  57 N6        29.91R WCI  35
* DEARBORN     N/A       40  21  47 N/A        N/A
* EAST GLACIER N/A       32  20  61 W10G17     N/A   WCI  24
* MONARCH      N/A       31  14  49 NW22G27    N/A   WCI  18
* PENDROY      N/A       36  21  54 NW19G24    N/A   WCI  25
* ROGERS PASS  N/A       31  22  69 SE6G13     N/A   WCI  25
* SWEET GRASS  N/A       36  25  64 NW15G20    N/A   WCI  27
$$

MTZ011-013-016-021-035-040-045-047-050-051-222100-
NORTH CENTRAL MONTANA
CITY           SKY/WX    TMP DP  RH WIND       PRES   REMARKS
HAVRE          CLOUDY    39  28  65 W9        29.86R WCI  33
LEWISTOWN      CLOUDY    37  21  52 NW15      29.84R WCI  28
* N BAR RANCH  PTCLDY    36  21  54 NW21G35   29.80R WCI  25
* CHESTER      N/A       37  23  57 NW11G17    N/A   WCI  29
* DENTON       N/A       39  22  51 W19G26     N/A   WCI  29
* GEYSER       N/A       36  21  54 W16        N/A   WCI  26
* JUDITH GAP   N/A       35  22  59 NW27G37    N/A   WCI  22
* LOMA         N/A       37  25  62 SW9        N/A   WCI  30
$$

MTZ017>020-022>027-061-062-222100-
NORTHEAST MONTANA
CITY           SKY/WX    TMP DP  RH WIND       PRES   REMARKS
GLASGOW        CLOUDY    30  25  82 N20       29.73R WCI  17
GLENDIVE       CLOUDY    27  23  85 NW22      29.67R WCI  13
JORDAN         PTSUNNY   36  27  70 NW30G37   29.74R WCI  23
SIDNEY         CLOUDY    27  21  78 NW17G22   29.68R WCI  14
WOLF POINT     LGT SNOW  28  23  81 NW15      29.74R VSB 3/4  WCI  16
* BEAVER HILL  N/A       24  21  88 NW21G27    N/A   WCI   9
* CIRCLE       N/A       31  28  89 W8G13      N/A   WCI  24
* LINDSAY DVD  N/A       26  24  92 NW27G35    N/A   WCI  10
* NAVAJO       N/A       22  19  88 N17G24     N/A   WCI   8
* SACO         N/A       35  28  76 NW20G27    N/A   WCI  24
$$

MTZ028>042-056>058-222100-
SOUTHCENTRAL AND SOUTHEAST MONTANA
CITY           SKY/WX    TMP DP  RH WIND       PRES   REMARKS
BAKER          LGT SNOW  27  25  92 NW21G28   29.62R VSB 1 1/2 WCI  13
BILLINGS       PTSUNNY   41  23  49 NW17G28   29.81S
LIVINGSTON     CLOUDY    36  21  54 SW17      29.88R WCI  26
MILES CITY     CLOUDY    34  27  76 NW20G31   29.72R WCI  23
* LAUREL APT   PTSUNNY   39  18  43 W17G28     N/A   WCI  30
* ROUNDUP APT  CLOUDY    39  16  39 NW16G22    N/A   WCI  30
* ALZADA       N/A       38  26  62 W19G26     N/A   WCI  28
* HYSHAM       N/A       38  20  48 W14G23     N/A   WCI  30
* LAME DEER    N/A       34  21  59 NW13G26    N/A   WCI  25
* REED POINT   N/A       40  21  47 W18G26     N/A   WCI  31
* ROSCOE HILL  N/A       32  13  45 W9G23      N/A   WCI  24
$$

REGIONAL REPORTS...DAKOTAS
CITY           SKY/WX    TMP DP  RH WIND       PRES   REMARKS
WILLISTON      CLOUDY    27  21  78 N13       29.64R WCI  16
DICKINSON      SNOW      27  23  85 NW21      29.54R VSB M1/4 WCI  13
BEACH          LGT SNOW  25  23  92 NW22G31   29.63R VSB 3    WCI  10
CROSBY         FOG       27  27 100 NW12      29.65R VSB 3    WCI  16
WATFORD CITY   CLOUDY    25  25 100 NW14      29.60R WCI  13
BISMARCK       CLOUDY    30  28  92 N13       29.51S WCI  20
GRAND FORKS    LGT RAIN  36  36 100 E6        29.54R VSB 2    WCI  31
FARGO          CLOUDY    41  37  86 SE12      29.50R
BUFFALO SD     CLOUDY    30  27  89 NW30G41   29.48R WCI  15
RAPID CITY     PTSUNNY   43  23  45 NW31G41   29.50S
$$

REGIONAL REPORTS...WYOMING/IDAHO/WASHINGTON
CITY           SKY/WX    TMP DP  RH WIND       PRES   REMARKS
GILLETTE       PTSUNNY   37  25  62 NW30G37   29.67R WCI  24
SHERIDAN       PTSUNNY   37  25  62 NW33G43   29.76R WCI  24
CODY           PTSUNNY   30  27  89 E15       29.80S WCI  19
YELLOWSTONE LA PTSUNNY   21  18  88 SE3       29.86F
SALMON         CLOUDY    36  30  79 CALM      30.03R
MULLAN PASS    CLOUDY    25  21  85 NW8G20    30.03S WCI  16
SAND POINT     SUNNY     41  30  65 S7        30.13R
SPOKANE        SUNNY     43  30  60 W14       30.17S
$$

REGIONAL REPORTS...SASKATCHEWAN
CITY           SKY/WX    TMP DP  RH WIND       PRES   REMARKS
SWIFT CURRENT  LGT SNOW  21  19  92 NW15      29.76R VSB 3    WCI   7

$$



USA.gov is the U.S. government's official web portal to all federal, state and local government web resources and services.